This is the latest recevied weather packets stored in our database for station/object KB9MLJ. If no packets are shown the sender has not sent any weather packets the latest 1 day(s).
| Time | Temp. | Humidity | Pressure | Rain* | Wind** | Luminosity | Snow |
|---|---|---|---|---|---|---|---|
| 1778035967 | 11.11° C | 55% | 1009.5 hPa | 0 mm | - | 0 W/m² | - |
| 1778035664 | 11.11° C | 54% | 1009.9 hPa | 0 mm | - | 0 W/m² | - |
| 1778035361 | 11.11° C | 55% | 1009.9 hPa | 0 mm | - | 0 W/m² | - |
| 1778035057 | 11.11° C | 54% | 1010.2 hPa | 0 mm | - | 0 W/m² | - |
| 1778034754 | 11.11° C | 55% | 1009.9 hPa | 0 mm | - | 0 W/m² | - |
| 1778034451 | 11.11° C | 54% | 1009.5 hPa | 0 mm | - | 0 W/m² | - |
| 1778033846 | 11.11° C | 54% | 1009.5 hPa | 0 mm | - | 0 W/m² | - |
| 1778033543 | 11.11° C | 54% | 1009.5 hPa | 0 mm | - | 0 W/m² | - |
| 1778033240 | 11.11° C | 54% | 1009.5 hPa | 0 mm | - | 0 W/m² | - |
| 1778032635 | 11.11° C | 53% | 1009.2 hPa | 0 mm | - | 0 W/m² | - |
| 1778032333 | 11.11° C | 52% | 1009.2 hPa | 0 mm | - | 0 W/m² | - |
| 1778032030 | 11.11° C | 53% | 1009.2 hPa | 0 mm | - | 0 W/m² | - |
| 1778030816 | 11.67° C | 53% | 1009.2 hPa | 0 mm | - | 0 W/m² | - |
| 1778030513 | 11.67° C | 53% | 1009.2 hPa | 0 mm | - | 0 W/m² | - |
| 1778030211 | 11.67° C | 52% | 1008.5 hPa | 0 mm | - | 0 W/m² | - |
| 1778029907 | 11.67° C | 51% | 1008.8 hPa | 0 mm | - | 0 W/m² | - |
| 1778029606 | 11.67° C | 51% | 1008.8 hPa | 0 mm | - | 0 W/m² | - |
| 1778028696 | 11.67° C | 50% | 1008.8 hPa | 0 mm | - | 0 W/m² | - |
| 1778028090 | 11.67° C | 51% | 1008.8 hPa | 0 mm | - | 1 W/m² | - |
| 1778027786 | 11.67° C | 49% | 1009.2 hPa | 0 mm | - | 2 W/m² | - |
| 1778027178 | 11.67° C | 50% | 1008.8 hPa | 0 mm | - | 5 W/m² | - |
| 1778026874 | 11.67° C | 51% | 1008.5 hPa | 0 mm | - | 9 W/m² | - |
| 1778026268 | 11.67° C | 54% | 1008.8 hPa | 0 mm | - | 6 W/m² | - |
| 1778023846 | 12.22° C | 52% | 1008.5 hPa | 0 mm | - | 37 W/m² | - |
| 1778023241 | 12.22° C | 52% | 1008.5 hPa | 0 mm | - | 37 W/m² | - |
* Rain latest hour (hover to see other rain measurements)
** Current wind speed in m/s (hover to see current wind gust speed)